GW2364 Weather Reports


Display with metric or nautical units.
time (UTC)temp
F
wind
direction
speed
MPH
gust
MPH
rain 1hr
in
rain 24hr
in
rain mn
in
humidity
%
barometer
mb
20260507040004 61 49 3.0 6.0 0.00 0.00 0.00 84 1013.5
20260507034505 61 13 1.0 4.0 0.00 0.00 0.00 84 1013.7
20260507033008 61 5 2.0 5.0 0.00 0.00 0.00 84 1013.4
20260507031502 61 36 3.0 6.0 0.00 0.00 0.00 83 1013.2
20260507030004 62 355 3.0 7.0 0.00 0.00 0.00 83 1013.3
20260507024502 62 337 2.0 8.0 0.00 0.00 0.00 83 1012.9
20260507023004 62 14 1.0 9.0 0.00 0.00 0.00 83 1012.9
20260507021502 62 338 2.0 6.0 0.00 0.00 0.00 83 1012.6
20260507020006 63 45 2.0 6.0 0.00 0.00 0.00 83 1012.4
20260507014501 63 28 2.0 8.0 0.00 0.00 0.00 82 1012.0
20260507013001 63 284 1.0 4.0 0.00 0.00 0.00 82 1011.8
20260507011505 63 49 2.0 9.0 0.00 0.00 0.00 82 1011.5
20260507010006 63 350 2.0 7.0 0.00 0.00 0.00 82 1011.3
20260507004502 63 17 2.0 6.0 0.00 0.00 0.00 81 1011.1
20260507003003 63 53 2.0 7.0 0.00 0.00 0.00 81 1011.0
20260507001502 63 360 2.0 12.0 0.00 0.00 0.00 82 1011.1
20260507000007 63 17 3.0 9.0 0.00 0.00 0.00 81 1011.0
20260506234502 63 26 3.0 12.0 0.00 0.00 0.00 81 1010.7
20260506233003 63 27 3.0 9.0 0.00 0.00 0.00 80 1010.6
20260506231503 63 30 2.0 6.0 0.00 0.00 0.00 80 1010.6
20260506230004 63 26 3.0 11.0 0.00 0.00 0.00 81 1010.6
20260506224502 63 327 2.0 9.0 0.00 0.00 0.00 80 1010.6
20260506223002 63 299 2.0 11.0 0.00 0.00 0.00 80 1010.5
20260506221507 63 355 4.0 12.0 0.00 0.00 0.00 79 1010.4
20260506220013 64 330 4.0 12.0 0.00 0.00 0.00 78 1010.6
20260506214504 65 340 4.0 11.0 0.00 0.00 0.00 76 1010.3
20260506213002 66 360 4.0 12.0 0.00 0.00 0.00 76 1010.1
20260506211502 68 355 6.0 13.0 0.00 0.00 0.00 72 1010.1
20260506210010 68 9 2.0 14.0 0.00 0.00 0.00 75 1010.2
20260506204502 70 355 4.0 8.0 0.00 0.00 0.00 71 1010.3
20260506203002 71 13 3.0 13.0 0.00 0.00 0.00 72 1010.3
20260506201502 72 5 4.0 13.0 0.00 0.00 0.00 73 1010.2
20260506200005 73 317 7.0 12.0 0.00 0.00 0.00 72 1009.9
20260506194502 73 45 3.0 12.0 0.00 0.00 0.00 75 1009.7
20260506193001 74 21 6.0 13.0 0.00 0.00 0.00 72 1009.6
20260506191502 76 32 6.0 14.0 0.00 0.00 0.00 74 1009.4
20260506190005 76 34 3.0 9.0 0.00 0.00 0.00 73 1009.9
20260506184501 77 42 4.0 8.0 0.00 0.00 0.00 73 1009.8
20260506183004 78 34 2.0 6.0 0.00 0.00 0.00 73 1009.5
20260506181501 77 49 3.0 7.0 0.00 0.00 0.00 74 1009.7
20260506180008 75 55 3.0 9.0 0.00 0.00 0.00 76 1009.5
20260506174501 75 69 2.0 7.0 0.00 0.00 0.00 76 1009.5
20260506173001 73 75 3.0 8.0 0.00 0.00 0.00 79 1009.5
20260506171501 71 75 3.0 7.0 0.00 0.00 0.00 81 1009.8
20260506170003 68 50 4.0 9.0 0.00 0.00 0.00 84 1009.7
20260506164502 65 68 4.0 11.0 0.00 0.00 0.00 90 1010.2
20260506163005 63 319 2.0 19.0 0.00 0.00 0.00 91 1010.7
20260506161502 64 54 11.0 23.0 0.00 0.00 0.00 88 1010.7
20260506160005 65 52 13.0 27.0 0.00 0.00 0.00 89 1010.3
20260506154501 67 5 11.0 19.0 0.00 0.00 0.00 87 1010.3
20260506153005 70 28 9.0 17.0 0.00 0.00 0.00 83 1010.0
20260506151501 77 101 0.0 3.0 0.00 0.00 0.00 87 1009.1
20260506150003 77 101 0.0 3.0 0.00 0.00 0.00 86 1009.2
20260506144500 77 88 1.0 4.0 0.00 0.00 0.00 86 1008.6
20260506143001 77 94 1.0 6.0 0.00 0.00 0.00 88 1008.2
20260506141502 76 94 1.0 6.0 0.00 0.00 0.00 90 1007.7
20260506140003 75 69 0.0 3.0 0.00 0.00 0.00 91 1008.4
20260506134500 75 62 1.0 3.0 0.00 0.00 0.00 91 1007.7
20260506133001 74 92 1.0 4.0 0.00 0.00 0.00 92 1007.8
20260506131504 74 65 1.0 6.0 0.00 0.00 0.00 93 1007.6
20260506130004 74 80 0.0 3.0 0.00 0.00 0.00 93 1007.4
20260506124501 74 125 1.0 4.0 0.00 0.00 0.00 93 1007.2
20260506123002 73 71 1.0 2.0 0.00 0.00 0.00 93 1007.2
20260506121601 73 223 0.0 1.0 0.00 0.00 0.00 93 1007.3
20260506120115 74 223 0.0 1.0 0.00 0.00 0.00 93 1007.2
20260506120006 74 223 0.0 1.0 0.00 0.00 0.00 93 1007.1
20260506114502 74 223 0.0 1.0 0.00 0.00 0.00 92 1007.0
20260506113101 74 223 0.0 1.0 0.00 0.00 0.00 92 1007.2
20260506111601 74 223 0.0 0.0 0.00 0.00 0.00 92 1007.1
20260506110100 74 223 0.0 1.0 0.00 0.00 0.00 92 1007.1
20260506110004 74 223 0.0 1.0 0.00 0.00 0.00 92 1007.1
20260506104602 74 223 0.0 1.0 0.00 0.00 0.00 92 1007.0
20260506103101 74 227 0.0 2.0 0.00 0.00 0.00 92 1006.7
20260506101632 74 227 1.0 5.0 0.00 0.00 0.00 92 1006.6
20260506100106 74 237 1.0 5.0 0.00 0.00 0.00 92 1006.5
20260506100004 74 232 0.0 4.0 0.00 0.00 0.00 92 1006.5
20260506094614 74 233 1.0 5.0 0.00 0.00 0.00 93 1006.4
20260506093100 74 234 1.0 5.0 0.00 0.00 0.00 93 1006.2
20260506091606 74 241 1.0 7.0 0.00 0.00 0.00 93 1006.0
20260506090008 74 85 1.0 4.0 0.00 0.00 0.00 91 1005.9
20260506084602 74 228 2.0 9.0 0.00 0.00 0.00 91 1005.9
20260506083106 74 257 2.0 7.0 0.00 0.00 0.00 91 1006.0
20260506083002 75 100 2.0 7.0 0.00 0.00 0.00 91 1005.9
20260506081600 74 223 1.0 7.0 0.00 0.00 0.00 90 1006.0
20260506080110 75 204 0.0 3.0 0.00 0.00 0.00 90 1006.1
20260506073114 75 145 0.0 7.0 0.00 0.00 0.00 90 1006.3
20260506071602 75 342 2.0 8.0 0.00 0.00 0.00 90 1006.4
20260506061609 75 223 0.0 4.0 0.00 0.00 0.00 90 1006.5
20260506044502 75 217 0.0 6.0 0.00 0.00 0.00 90 1006.5
20260506043002 75 94 1.0 4.0 0.00 0.00 0.00 89 1006.5
20260506041502 76 100 0.0 6.0 0.00 0.00 0.00 88 1006.3